WetterOnline ( https://www.wetteronline.de )

Wetter aktuell Srbská Kamenice

Aktuelles Wetter: Milesovka (836m)

6-stündlich | Neueste Meldungen
Ortszeit Temperatur Wetter
Do, 01.10. 2:00 8.7° C fast wolkenlos
Mi, 30.09. 20:00 9.1° C leicht bewölkt
Mi, 30.09. 14:00 13.3° C leicht bewölkt
Mi, 30.09. 8:00 7.0° C fast wolkenlos
Mi, 30.09. 2:00 7.8° C leicht bewölkt
Di, 29.09. 20:00 8.5° C leicht bewölkt
Di, 29.09. 14:00 8.8° C wolkig
Di, 29.09. 8:00 6.4° C bewölkt
Ortszeit Temperatur Wetter
Do, 01.10. 7:00 8.1° C fast wolkenlos
Do, 01.10. 6:00 8.1° C fast wolkenlos
Do, 01.10. 5:00 8.4° C wolkenlos
Do, 01.10. 4:00 8.0° C wolkenlos
Do, 01.10. 3:00 8.5° C wolkenlos
Do, 01.10. 2:00 8.7° C fast wolkenlos
Ortszeit Relative Feuchte Sichtweite
Do, 01.10. 2:00 92% 55 km
Mi, 30.09. 20:00 92% 65 km
Mi, 30.09. 14:00 73% 35 km
Mi, 30.09. 8:00 98% 15 km
Mi, 30.09. 2:00 92% 65 km
Di, 29.09. 20:00 85% 40 km
Di, 29.09. 14:00 98% 35 km
Di, 29.09. 8:00 99% 40 km
Ortszeit Relative Feuchte Sichtweite
Do, 01.10. 7:00 94% 50 km
Do, 01.10. 6:00 94% 55 km
Do, 01.10. 5:00 95% 55 km
Do, 01.10. 4:00 91% 60 km
Do, 01.10. 3:00 92% 60 km
Do, 01.10. 2:00 92% 55 km
Ortszeit Niederschlagsmenge Niederschlagsart
Do, 01.10. 2:00 0.0 l/m2 in 6 Std. -
Mi, 30.09. 20:00 0.0 l/m2 in 12 Std. -
Mi, 30.09. 14:00 0.0 l/m2 in 6 Std. -
Mi, 30.09. 8:00 0.0 l/m2 in 12 Std. -
Mi, 30.09. 2:00 0.0 l/m2 in 6 Std. -
Di, 29.09. 20:00 1 l/m2 in 12 Std. -
Di, 29.09. 14:00 1 l/m2 in 6 Std. Regen
Di, 29.09. 8:00 0.2 l/m2 in 12 Std. Nebel
Ortszeit Niederschlagsmenge Niederschlagsart
Do, 01.10. 7:00 keine Meldung -
Do, 01.10. 6:00 keine Meldung -
Do, 01.10. 5:00 keine Meldung -
Do, 01.10. 4:00 keine Meldung -
Do, 01.10. 3:00 keine Meldung -
Do, 01.10. 2:00 keine Meldung -
Ortszeit Stärke Spitze Richtung
km/h Bft. km/h Grad Sektor
Do, 01.10. 2:00 25 4 - 10° N
Mi, 30.09. 20:00 18 3 - 360° N
Mi, 30.09. 14:00 14 3 - 340° N
Mi, 30.09. 8:00 36 5 43 330° NW
Mi, 30.09. 2:00 32 5 - 330° NW
Di, 29.09. 20:00 32 5 43 340° N
Di, 29.09. 14:00 32 5 47 330° NW
Di, 29.09. 8:00 32 5 47 330° NW
Ortszeit Stärke Spitze Richtung
km/h Bft. km/h Grad Sektor
Do, 01.10. 7:00 22 4 - 340° N
Do, 01.10. 6:00 22 4 - 360° N
Do, 01.10. 5:00 18 3 - 20° N
Do, 01.10. 4:00 22 4 - 10° N
Do, 01.10. 3:00 25 4 - 10° N
Do, 01.10. 2:00 25 4 - 10° N
Ortszeit Untergrenze Bedeckung Gattung
total tief tief mittel hoch
Do, 01.10. 2:00 9000 m 1/8 0/8 - - Ci
Mi, 30.09. 20:00 600 m 3/8 2/8 Cu - Ci
Mi, 30.09. 14:00 480 m 5/8 2/8 Cu As Ci
Mi, 30.09. 8:00 2100 m 2/8 1/8 - As Ci
Mi, 30.09. 2:00 7500 m 3/8 0/8 - - Ci
Di, 29.09. 20:00 1380 m 4/8 2/8 Sc - Ci
Di, 29.09. 14:00 - 7/8 4/8 Cu As -
Di, 29.09. 8:00 600 m 7/8 6/8 Sc As -
Ortszeit Bedeckungsgrad in Achtel und Wolkenuntergrenze
Do, 01.10. 7:00 1(2400m)
Do, 01.10. 6:00 1(9000m)
Do, 01.10. 5:00 keine Wolken
Do, 01.10. 4:00 keine Wolken
Do, 01.10. 3:00 keine Wolken
Do, 01.10. 2:00 1(9000m)
Ortszeit Stationsdruck (hPa) Tendenz (hPa in 3 Std.)
Do, 01.10. 2:00 916 - 1,4
Mi, 30.09. 20:00 918 - 0,5
Mi, 30.09. 14:00 920 - 0,8
Mi, 30.09. 8:00 920 + 0,1
Mi, 30.09. 2:00 921 - 0,5
Di, 29.09. 20:00 921 + 0,8
Di, 29.09. 14:00 919 + 0,3
Di, 29.09. 8:00 918 + 0,8
Ortszeit Stationsdruck (hPa) Tendenz (hPa in 3 Std.)
Do, 01.10. 7:00 913 - 1,1
Do, 01.10. 6:00 914 - 1,6
Do, 01.10. 5:00 914 - 1,8
Do, 01.10. 4:00 914 - 2,1
Do, 01.10. 3:00 915 - 1,6
Do, 01.10. 2:00 916 - 1,4
Ortszeit Schneehöhe (cm)
Do, 01.10. 2:00 -
Mi, 30.09. 20:00 -
Mi, 30.09. 14:00 -
Mi, 30.09. 8:00 -
Mi, 30.09. 2:00 -
Di, 29.09. 20:00 -
Di, 29.09. 14:00 -
Di, 29.09. 8:00 -
Ortszeit Schneehöhe (cm)
Do, 01.10. 7:00 -
Do, 01.10. 6:00 -
Do, 01.10. 5:00 -
Do, 01.10. 4:00 -
Do, 01.10. 3:00 -
Do, 01.10. 2:00 -
Link zu dieser Seite / Seite empfehlen

Das Wetter in ...